RH
60 63 67 70 71 74 83 82 77 79 78 78 75 77 80 85 89 92 96 94 95 98
68 70 73 73 79 79 76 68 74 74 74 75 77 77 79 85 87 92 93 95 94 96
70 71 72 78 74 73 75 72 73 75 75 74 74 76 79 84 88 88 92 96 94 95
71 71 71 75 73 75 76 73 72 72 73 74 75 77 80 83 83 85 90 91 88 90
74 74 76 75 72 70 74 73 72 73 74 74 77 81 85 84 85 86 90 90 92 86
80 79 78 78 76 72 73 73 73 72 77 76 79 80 83 83 88 90 90 89 88 87
83 81 82 81 81 81 79 79 80 79 80 81 81 82 85 87 93 94 94 93 92 91
83 82 84 86 88 88 87 86 84 84 83 80 77 76 88 84 87 89 91 95 93 93
81 82 86 89 91 91 91 91 89 89 86 84 72 81 81 83 90 88 89 92 89 89
82 84 90 91 92 92 90 88 93 93 90 87 89 85 84 84 91 94 96 93 87 78
84 86 92 92 91 90 88 92 98 94 90 91 90 84 87 93 99 100 98 95 87 78
85 89 93 93 93 90 93 98 99 97 100 99 94 83 84 87 89 87 81 72 71 74
87 90 93 93 94 99 96 99 99 100 100 91 92 81 76 79 81 78 69 65 68 69
90 91 92 94 97 100 100 100 100 100 96 88 84 85 70 63 57 58 56 54 67 78
Wind_Speed
8 5 4 3 4 4 3 4 5 5 4 3 3 1 1 1 2 3 4 5 3 1
5 6 8 8 4 4 5 3 5 4 3 2 2 1 1 2 3 3 3 4 3 0
5 6 5 3 6 4 2 5 5 3 2 2 2 1 1 2 2 2 3 2 1 1
5 4 5 4 5 4 2 5 3 3 3 2 1 2 2 4 3 2 3 3 2 3
6 6 5 5 5 4 4 3 4 3 1 1 1 1 2 3 3 2 1 2 4 3
6 5 5 6 6 5 4 3 3 3 2 4 3 3 3 2 1 3 3 2 2 1
6 6 6 6 6 5 3 3 4 5 4 4 2 2 3 2 4 4 4 3 2 2
6 6 6 6 5 4 4 4 3 3 3 3 2 2 2 3 3 4 3 2 3 3
6 6 6 6 6 5 4 2 2 1 2 3 1 2 3 3 3 4 4 4 3 4
7 7 7 6 6 5 5 3 2 3 2 3 3 5 3 5 3 4 3 4 4 3
6 6 6 6 6 5 4 4 4 4 4 4 3 6 6 6 4 4 3 2 3 4
7 6 7 7 6 4 4 4 4 3 5 5 4 7 9 7 4 3 4 3 2 5
7 7 7 6 6 4 3 4 3 4 4 7 5 9 10 8 4 4 3 2 2 7
6 6 6 6 4 4 3 3 4 4 4 4 6 6 11 12 4 4 4 4 3 3
Wind_Direction
146 144 138 132 159 121 123 134 135 141 139 139 114 80 334 283 277 276 263 261 260 289
130 135 145 138 146 121 131 151 125 133 137 144 134 168 269 268 278 290 260 235 207 69
92 104 93 81 85 72 141 110 106 104 91 53 33 8 308 282 273 268 291 224 162 245
131 114 102 108 116 130 130 101 120 109 103 81 80 33 340 302 257 273 273 216 134 231
139 134 144 142 132 143 133 130 137 115 95 95 98 26 307 288 297 275 263 207 181 190
154 139 149 143 143 122 115 89 98 103 90 87 69 32 347 326 82 103 83 39 75 347
164 168 161 145 119 117 110 103 93 96 102 90 73 23 350 13 120 104 66 36 74 63
168 155 142 140 142 136 118 112 129 129 146 162 178 175 321 272 140 127 110 37 74 80
168 162 165 160 158 141 116 100 125 173 187 170 176 190 223 215 148 143 151 135 88 62
174 175 171 156 153 159 153 160 203 198 191 197 165 170 156 151 130 136 146 140 132 98
171 173 162 163 171 169 163 183 208 207 203 168 167 154 134 132 120 120 121 133 146 134
168 174 172 177 178 170 167 184 198 193 193 177 174 175 150 138 133 141 151 167 144 145
175 175 179 182 179 164 166 178 188 189 198 194 182 188 172 155 153 158 165 175 212 154
175 176 176 177 165 154 158 166 191 194 203 204 183 199 191 181 170 185 182 183 197 218